publishyourarticles.net alexa rank chart, publishyourarticles.net alexa rank daily changes

publishyourarticles.net alexa rank chart, publishyourarticles.net alexa rank daily changes

publishyourarticles.net
Actual rank:
59 776

RANK HISTORY

Date Rank Diff
2017/10/18 59 776 -127
2017/10/17 59 903 -25
2017/10/16 59 928 -458
2017/10/14 60 386 +291
2017/10/13 60 095 +104
2017/10/12 59 991 -872
2017/10/11 60 863 -246
2017/10/10 61 109 -601
2017/10/09 61 710 -687
2017/10/08 62 397 +50
2017/10/07 62 347 -707
2017/10/06 63 054 -466
2017/10/05 63 520 -760
2017/10/04 64 280 -946
2017/10/03 65 226 -1 507
2017/10/02 66 733 -735
2017/10/01 67 468 -116
2017/09/30 67 584 -133
2017/09/29 67 717 -889
2017/09/28 68 606 -438
2017/09/27 69 044 -1 334
2017/09/26 70 378 -610
2017/09/25 70 988 -492
2017/09/24 71 480 +196
2017/09/23 71 284 +1 097
2017/09/22 70 187 +172
2017/09/20 70 015 -572
2017/09/19 70 587 -2 361
2017/09/18 72 948 +762
2017/09/17 72 186 +363
2017/09/16 71 823 -169
2017/09/15 71 992 -41
2017/09/14 72 033 -823
2017/09/13 72 856 -537
2017/09/12 73 393 -370
2017/09/11 73 763 +446
2017/09/10 73 317 +38
2017/09/09 73 279 +270
2017/09/08 73 009 -359
2017/09/07 73 368 -250
2017/09/06 73 618 -193
2017/09/05 73 811 -1
2017/09/04 73 812 +177
2017/09/03 73 635 +353
2017/09/02 73 282 +317
2017/09/01 72 965 +581
2017/08/31 72 384 +214
2017/08/30 72 170 -257
2017/08/29 72 427 -548
2017/08/28 72 975 +1 013
2017/08/27 71 962 +237
2017/08/26 71 725 +189
2017/08/25 71 536 +368
2017/08/24 71 168 -84
2017/08/23 71 252 -516
2017/08/22 71 768 -579
2017/08/21 72 347 -941
2017/08/20 73 288 -390
2017/08/19 73 678

WIDGET FOR YOUR SITE

DOMAINS WITH THE NEAREST RANK

Domain Rank
thefinancialdiet.com 59 771
herodote.net 59 772
51ztzj.com 59 773
hesapkurdu.com 59 774
bpm-power.com 59 775
publishyourarticles.net 59 776
eju.tv 59 777
foxsports.nl 59 778
baden-wuerttemberg.de 59 779
sbisonpo.co.jp 59 780
se.df.gov.br 59 781

DOMAINS WITH THE NEAREST RANK BY TLD .net

Domain Rank
anfturkce.net 59 692
turboimg.net 59 720
skyrock.net 59 748
inforge.net 59 764
herodote.net 59 772
publishyourarticles.net 59 776
minhaji.net 59 783
kinonix.net 59 784
zone-anime.net 59 816
sonymobile.net 59 850
enjoy-school.net 59 858